Regional Weather Roundup
Issued by NWS Charleston, SC

Current Version | Previous Version | Graphics & Text | Print | Product List | Glossary On
Versions: 1 2 3 4 5 6 7 8 9 10 11 12 13 14 15 16 17 18 19 20 21 22 23 24 25 26 27 28 29 30 31 32 33 34 35 36 37 38 39 40 41 42 43 44 45 46 47 48 49 50
236
ASUS42 KCHS 081012
RWRCHS

REGIONAL WEATHER ROUNDUP
NATIONAL WEATHER SERVICE CHARLESTON SC
500 AM EST MON FEB 08 2016

NOTE: "FAIR" INDICATES FEW OR NO CLOUDS BELOW 12,000 FEET WITH NO
SIGNIFICANT WEATHER AND/OR OBSTRUCTIONS TO VISIBILITY.

NOT ALL STATIONS ARE QUALITY CONTROLLED BY THE NATIONAL
WEATHER SERVICE. USE DATA WITH CAUTION...ESPECIALLY
DEWPOINT OBSERVATIONS.

NOTICE: OBSERVATIONS FOR THE SAVANNAH-HILTON HEAD INTERNATIONAL AIRPORT
/KSAV/ HAVE BEEN TEMPORARILY REMOVED DUE TO AN ERRONEOUS TEMPERATURE
SENSOR. THE OBSERVATION WILL BE REINTRODUCED ONCE REPAIRS ARE COMPLETE.

SCZ027-030-031-034>040-042>050-081100-
...SOUTHEAST SOUTH CAROLINA...

CITY           SKY/WX    TMP DP  RH WIND       PRES   REMARKS
N CHARLESTON   CLEAR     34  29  82 CALM      29.89F
WATERFRONT PRK   N/A     40  33  76 VRB3      29.76F
MOUNT PLEASANT FAIR      34  32  93 CALM      29.90F
JOHNS ISLAND   FAIR      36  32  87 CALM      29.90F
PINOPOLIS        N/A     41  34  75 SW7       29.82S
MONCKS CORNER  FAIR      30  27  86 CALM      29.89F
SUMMERVILLE    NOT AVBL
BEAUFORT MCAS  CLEAR     37  29  72 W8        29.91F WCI  31
BEAUFORT ARPT  FAIR      36  32  87 W3        29.91F
HILTON HEAD IS CLEAR     41  32  70 SW6       29.94F
WALTERBORO     SUNNY     36  32  87 SW5       29.90F WCI  32
ALLENDALE      FAIR      32  32 100 CALM      29.90S

...SOUTHERN MIDLANDS AND PEE DEE...

CITY           SKY/WX    TMP DP  RH WIND       PRES   REMARKS
GEORGETOWN     NOT AVBL
KINGSTREE      NOT AVBL
ORANGEBURG     CLEAR     32  28  85 CALM      29.87F
BARNWELL       FAIR      32  32 100 CALM      29.90S
AIKEN          FAIR      34  27  75 SW3       29.91F
MANNING        FAIR      30  23  74 CALM      29.88F
COLUMBIA       CLEAR     29  24  82 W5        29.86F WCI  24
SUMTER         CLEAR     32  27  81 SW2       29.84F
FLORENCE       CLEAR     32  27  81 CALM      29.87F
MYRTLE BEACH   CLEAR     37  25  60 W5        29.90S WCI  34
N MYRTLE BEACH CLEAR     37  28  70 W7        29.87R WCI  32

$$

GAZ063-065-086>088-099>101-113>116-118-119-134>141-150-081100-
...SOUTHEAST GEORGIA...

CITY           SKY/WX    TMP DP  RH WIND       PRES   REMARKS
SAVANNAH ARPT  CLEAR     35  28  75 W7        29.95F WCI  29
HUNTER AAF     CLEAR     36  30  78 SW6       29.93S WCI  32
FORT STEWART   CLEAR     36  30  80 SW5       29.93F WCI  32
STATESBORO     CLEAR     44  26  49 W7        29.93S
SYLVANIA       SUNNY     38  32  79 W3        29.93R
CLAXTON        FAIR      38  33  81 SW5       29.95S WCI  35

...CSRA...CENTRAL AND FAR SOUTHEAST GEORGIA...

CITY           SKY/WX    TMP DP  RH WIND       PRES   REMARKS
THOMSON        CLEAR     36  30  80 W3        29.93F
AUGUSTA-BUSH   CLEAR     38  26  62 W6        29.90F WCI  33
AUGUSTA-DANIEL CLEAR     43  23  45 VRB3      29.89F
SWAINSBORO     FAIR      32  30  93 CALM      29.94S
VIDALIA        CLEAR     37  30  75 W3        29.95F
EASTMAN        FAIR      40  29  65 CALM      29.98F
HAZLEHURST     FAIR      39  32  75 SW3       29.95F
ALMA           CLEAR     38  30  73 W3        29.97F
WAYCROSS       CLEAR     39  34  81 CALM      29.98F
JESUP          FAIR      34  32  93 W3        29.98S
BAXLEY         FAIR      37  34  87 CALM      29.96F
BRUNSWICK      CLEAR     39  32  75 W3        29.99S
SAINT SIMONS   CLEAR     41  32  70 W6        29.98R

$$

SCZ027-028-034-036>038-045-046-048>050-GAZ119-141-081100-
...LAKE AND SUPPLEMENTAL COASTAL OBSERVATIONS...

STATION/POSITION TIME  TEMP    WIND        PRES    WAVE   SWELL
                       AIR SEA DIR/SP/G            HT/PER HT/PER/DIR
                 (UTC) (F)     (DEG/KT/KT) (MB)    (FT/S) (FT/S/D)
WINYAH BAY       0845   38     290/  4     1010.0
LAKE MURRAY      0900   40     280/  6/  8 1010.8F
ACE BASIN NERRS  NOT AVBL
FORT PULASKI     0900   43 52  260/  8/ 10 1014.2F
SAPELO ISLAND    0900   43     270/  6     1014.0F

$$

ANZ835-935-AMZ111-154-330-350-352-354-370-450-454-472-081100-
...C-MAN AND BUOY OBSERVATIONS...

STATION/POSITION TIME  TEMP    WIND        PRES    WAVE   SWELL
                       AIR SEA DIR/SP/G            HT/PER HT/PER/DIR
                 (UTC) (F)     (DEG/KT/KT) (MB)    (FT/S) (FT/S/D)
BUOY 41004       0950   53 66  300/ 12/ 16 1011.9F   5/ 8   5/ 8
BUOY 41008       0950   50 55  290/ 17/ 19 1014.4R   4/15   3/ 90/15
FOLLY BEACH CMAN 1000   40     260/  5/  6 1012.6F
CAPERS NEARSHORE 0908   46     280/ 12/ 14 1012.5R
FRIPP NEARSHORE  0900   47     280/ 14/ 16 1013.1F


STATION/POSITION TIME  TEMP    WIND        PRES    WAVE   SWELL
                       AIR SEA DIR/SP/G            HT/PER HT/PER/DIR
                 (UTC) (F)     (DEG/KT/KT) (MB)    (FT/S) (FT/S/D)
5E ST. MARYS GA  0921      54                N/A     4/12   2/ 80/12
FRYING PAN BUOY  0900   49 63  310/ 21/ 27 1009.9R
BUOY 41025       0950   46 70  320/ 27/ 33 1003.3R  13/12  10/ 90/12
CAPE LOOKOUT NC  NOT AVBL
BUOY 41002       0950   59 69  300/ 29/ 39   N/A    25/12  18/330/12
BUOY 41010       0920   62 73              1014.2R
ST AUGUSTINE FL  1000   41 57  250/  7/  8 1017.0F


$$




USA.gov is the U.S. government's official web portal to all federal, state and local government web resources and services.